When you browse on this site, cookies collect data to enhance your experience and personalize the content and advertising you see.
Visit our Privacy Policy to learn more. By continuing to use the site, you agree to this use of cookies and data.
  • în România
  • Lista ţărilor
  • Pe 7 zile
  • Temperatura apei
  • Hartă satelitară
  • Meteo pe hartă
  • Widget-uri
  • user-avatar
    Intrare

    Meteo pe oră la Międzyrzec Podlaski

    Astăzi, 26 Aprilie, Vineri

    Timp Temperatura Precipitaţii Vânt Presiune Umiditate
    00:00 +14°C° 0 mm 3 m/s 748 mmHg 91%
    01:00 +14°C° 0 mm 3 m/s 748 mmHg 92%
    02:00 +13°C° 0 mm 3 m/s 748 mmHg 93%
    03:00 +13°C° 0 mm 3 m/s 747 mmHg 93%
    04:00 +13°C° 0 mm 3 m/s 747 mmHg 94%
    05:00 +12°C° 0 mm 3 m/s 747 mmHg 95%
    06:00 +14°C° 0 mm 3 m/s 747 mmHg 91%
    07:00 +16°C° 0 mm 3 m/s 747 mmHg 88%
    08:00 +17°C° 0 mm 3 m/s 747 mmHg 83%
    09:00 +19°C° 0 mm 3 m/s 747 mmHg 76%
    10:00 +21°C° 0 mm 4 m/s 746 mmHg 70%
    11:00 +23°C° 0 mm 4 m/s 746 mmHg 63%
    12:00 +25°C° 0 mm 4 m/s 746 mmHg 58%
    13:00 +26°C° 0 mm 4 m/s 745 mmHg 53%
    14:00 +27°C° 0 mm 4 m/s 745 mmHg 48%
    15:00 +27°C° 0 mm 4 m/s 745 mmHg 48%
    16:00 +26°C° 0 mm 3 m/s 744 mmHg 49%
    17:00 +26°C° 0 mm 3 m/s 744 mmHg 49%
    18:00 +25°C° 0 mm 3 m/s 744 mmHg 54%
    19:00 +23°C° 0 mm 2 m/s 744 mmHg 60%
    20:00 +20°C° 0 mm 2 m/s 744 mmHg 66%
    21:00 +19°C° 0 mm 2 m/s 743 mmHg 69%
    22:00 +18°C° 0 mm 2 m/s 743 mmHg 72%
    23:00 +18°C° 0 mm 2 m/s 743 mmHg 75%

    Mâine, 27 Aprilie, Sâmbătă

    Timp Temperatura Precipitaţii Vânt Presiune Umiditate
    00:00 +17°C° 0 mm 2 m/s 743 mmHg 76%
    01:00 +17°C° 0 mm 2 m/s 743 mmHg 76%
    02:00 +16°C° 0 mm 2 m/s 743 mmHg 77%
    03:00 +16°C° 0 mm 2 m/s 743 mmHg 78%
    04:00 +15°C° 0 mm 2 m/s 742 mmHg 79%
    05:00 +15°C° 0 mm 2 m/s 742 mmHg 80%
    06:00 +16°C° 0 mm 3 m/s 742 mmHg 77%
    07:00 +18°C° 0 mm 3 m/s 742 mmHg 74%
    08:00 +19°C° 0 mm 4 m/s 743 mmHg 70%
    09:00 +20°C° 0 mm 5 m/s 743 mmHg 70%
    10:00 +21°C° 0 mm 5 m/s 743 mmHg 70%
    11:00 +21°C° 0 mm 6 m/s 743 mmHg 70%
    12:00 +21°C° 0 mm 6 m/s 743 mmHg 70%
    13:00 +21°C° 0 mm 6 m/s 743 mmHg 70%
    14:00 +21°C° 0 mm 6 m/s 743 mmHg 71%
    15:00 +20°C° 0 mm 6 m/s 743 mmHg 71%
    16:00 +20°C° 0 mm 6 m/s 743 mmHg 71%
    17:00 +19°C° 0 mm 6 m/s 743 mmHg 71%
    18:00 +17°C° 0 mm 5 m/s 743 mmHg 73%
    19:00 +16°C° 0 mm 5 m/s 743 mmHg 74%
    20:00 +15°C° 0 mm 5 m/s 743 mmHg 76%
    21:00 +14°C° 0 mm 5 m/s 744 mmHg 79%
    22:00 +13°C° 0 mm 5 m/s 744 mmHg 82%
    23:00 +12°C° 0 mm 5 m/s 744 mmHg 85%

    Poimâine, 28 Aprilie, Duminică

    Timp Temperatura Precipitaţii Vânt Presiune Umiditate
    00:00 +12°C° 0 mm 4 m/s 744 mmHg 86%
    01:00 +12°C° 0 mm 4 m/s 744 mmHg 87%
    02:00 +12°C° 0 mm 4 m/s 744 mmHg 88%
    03:00 +12°C° 0 mm 4 m/s 744 mmHg 88%
    04:00 +12°C° 0 mm 4 m/s 744 mmHg 87%
    05:00 +12°C° 0 mm 4 m/s 744 mmHg 86%
    06:00 +12°C° 0 mm 4 m/s 744 mmHg 86%
    07:00 +12°C° 0 mm 4 m/s 744 mmHg 86%
    08:00 +12°C° 0 mm 5 m/s 745 mmHg 86%
    09:00 +12°C° 0 mm 5 m/s 745 mmHg 85%
    10:00 +12°C° 0 mm 5 m/s 745 mmHg 84%
    11:00 +12°C° 0 mm 5 m/s 745 mmHg 83%
    12:00 +12°C° 0.1 mm 5 m/s 745 mmHg 83%
    13:00 +12°C° 0.1 mm 5 m/s 745 mmHg 83%
    14:00 +12°C° 0.1 mm 5 m/s 745 mmHg 83%
    15:00 +12°C° 0.1 mm 5 m/s 745 mmHg 84%
    16:00 +13°C° 0.1 mm 5 m/s 745 mmHg 84%
    17:00 +13°C° 0.1 mm 5 m/s 745 mmHg 85%
    18:00 +12°C° 0 mm 4 m/s 745 mmHg 87%
    19:00 +12°C° 0 mm 4 m/s 745 mmHg 88%
    20:00 +11°C° 0 mm 4 m/s 745 mmHg 90%
    21:00 +11°C° 0 mm 3 m/s 745 mmHg 92%
    22:00 +11°C° 0 mm 3 m/s 745 mmHg 94%
    23:00 +12°C° 0 mm 2 m/s 745 mmHg 96%

    29 Aprilie, Luni

    Timp Temperatura Precipitaţii Vânt Presiune Umiditate
    00:00 +12°C° 0.1 mm 2 m/s 745 mmHg 96%
    01:00 +12°C° 0.1 mm 2 m/s 745 mmHg 96%
    02:00 +13°C° 0.1 mm 1 m/s 745 mmHg 97%
    03:00 +13°C° 0.5 mm 2 m/s 745 mmHg 96%
    04:00 +12°C° 0.5 mm 3 m/s 745 mmHg 96%
    05:00 +12°C° 0.5 mm 3 m/s 745 mmHg 96%
    06:00 +12°C° 1.5 mm 4 m/s 745 mmHg 95%
    07:00 +12°C° 1.5 mm 5 m/s 745 mmHg 94%
    08:00 +11°C° 1.5 mm 6 m/s 745 mmHg 93%
    09:00 +10°C° 2 mm 6 m/s 746 mmHg 92%
    10:00 +10°C° 2 mm 7 m/s 746 mmHg 92%
    11:00 +10°C° 2 mm 7 m/s 746 mmHg 91%
    12:00 +10°C° 1.8 mm 7 m/s 746 mmHg 90%
    13:00 +10°C° 1.8 mm 7 m/s 746 mmHg 89%
    14:00 +10°C° 1.8 mm 6 m/s 746 mmHg 88%
    15:00 +10°C° 0.6 mm 6 m/s 746 mmHg 87%
    16:00 +10°C° 0.6 mm 6 m/s 746 mmHg 87%
    17:00 +12°C° 0.6 mm 5 m/s 746 mmHg 86%
    18:00 +10°C° 0.2 mm 5 m/s 746 mmHg 87%
    19:00 +10°C° 0.2 mm 5 m/s 746 mmHg 87%
    20:00 +10°C° 0.2 mm 5 m/s 746 mmHg 87%
    21:00 +11°C° 0 mm 4 m/s 746 mmHg 87%
    22:00 +10°C° 0 mm 4 m/s 746 mmHg 87%
    23:00 +10°C° 0 mm 4 m/s 746 mmHg 87%

    30 Aprilie, Marţi

    Timp Temperatura Precipitaţii Vânt Presiune Umiditate
    00:00 +10°C° 0 mm 4 m/s 746 mmHg 87%
    01:00 +8°C° 0 mm 5 m/s 746 mmHg 86%
    02:00 +8°C° 0 mm 5 m/s 746 mmHg 86%
    03:00 +7°C° 0 mm 5 m/s 746 mmHg 84%
    04:00 +7°C° 0 mm 5 m/s 746 mmHg 83%
    05:00 +6°C° 0 mm 5 m/s 746 mmHg 82%
    06:00 +7°C° 0 mm 5 m/s 746 mmHg 80%
    07:00 +7°C° 0 mm 5 m/s 747 mmHg 77%
    08:00 +8°C° 0 mm 6 m/s 747 mmHg 75%
    09:00 +10°C° 0 mm 6 m/s 747 mmHg 70%
    10:00 +11°C° 0 mm 6 m/s 747 mmHg 65%
    11:00 +14°C° 0 mm 6 m/s 747 mmHg 60%
    12:00 +14°C° 0 mm 6 m/s 747 mmHg 57%
    13:00 +15°C° 0 mm 6 m/s 747 mmHg 54%
    14:00 +16°C° 0 mm 6 m/s 746 mmHg 51%
    15:00 +15°C° 0 mm 5 m/s 746 mmHg 51%
    16:00 +15°C° 0 mm 5 m/s 746 mmHg 51%
    17:00 +15°C° 0 mm 5 m/s 746 mmHg 51%
    18:00 +13°C° 0 mm 4 m/s 746 mmHg 56%
    19:00 +12°C° 0 mm 4 m/s 746 mmHg 61%
    20:00 +10°C° 0 mm 3 m/s 746 mmHg 66%
    21:00 +9°C° 0 mm 3 m/s 747 mmHg 66%
    22:00 +9°C° 0 mm 3 m/s 747 mmHg 66%
    23:00 +8°C° 0 mm 3 m/s 747 mmHg 66%

    1 Mai, Miercuri

    Timp Temperatura Precipitaţii Vânt Presiune Umiditate
    00:00 +7°C° 0 mm 3 m/s 747 mmHg 68%
    01:00 +7°C° 0 mm 3 m/s 747 mmHg 69%
    02:00 +6°C° 0 mm 2 m/s 747 mmHg 70%
    03:00 +6°C° 0 mm 2 m/s 747 mmHg 70%
    04:00 +6°C° 0 mm 2 m/s 747 mmHg 71%
    05:00 +5°C° 0 mm 2 m/s 747 mmHg 72%
    06:00 +7°C° 0 mm 2 m/s 747 mmHg 68%
    07:00 +8°C° 0 mm 2 m/s 747 mmHg 65%
    08:00 +10°C° 0 mm 2 m/s 747 mmHg 61%
    09:00 +12°C° 0 mm 2 m/s 747 mmHg 55%
    10:00 +14°C° 0 mm 2 m/s 747 mmHg 49%
    11:00 +15°C° 0 mm 2 m/s 746 mmHg 42%
    12:00 +15°C° 0 mm 2 m/s 746 mmHg 42%
    13:00 +15°C° 0 mm 2 m/s 746 mmHg 42%
    14:00 +16°C° 0 mm 2 m/s 746 mmHg 42%
    15:00 +16°C° 0 mm 2 m/s 745 mmHg 45%
    16:00 +15°C° 0 mm 2 m/s 745 mmHg 49%
    17:00 +15°C° 0 mm 2 m/s 745 mmHg 52%
    18:00 +14°C° 0 mm 2 m/s 745 mmHg 54%
    19:00 +13°C° 0 mm 2 m/s 745 mmHg 57%
    20:00 +12°C° 0 mm 1 m/s 745 mmHg 59%
    21:00 +10°C° 0 mm 2 m/s 745 mmHg 66%
    22:00 +10°C° 0 mm 2 m/s 744 mmHg 72%
    23:00 +9°C° 0 mm 2 m/s 744 mmHg 79%
    Arată mai mult